Regional Weather Roundup
Issued by NWS

Home | Current Version | Previous Version | Text Only | Print | Product List | Glossary On
Versions: 1 2 3 4 5 6 7 8 9 10 11 12 13 14 15 16 17 18 19 20 21 22 23 24 25 26 27 28 29 30 31 32 33 34 35 36 37 38 39 40 41 42 43 44 45 46 47 48 49 50
000
ASUS43 KLSX 281310
RWRMO

WEATHER SUMMARY FOR MISSOURI
NATIONAL WEATHER SERVICE SPRINGFIELD MO
800 AM CDT THU JUL 28 2016

NOTE: "FAIR" INDICATES FEW OR NO CLOUDS BELOW 12,000 FEET WITH NO
       SIGNIFICANT WEATHER AND/OR OBSTRUCTIONS TO VISIBILITY.
       CURRENT SKY AND/OR WEATHER CONDITIONS ARE NOT AVAILABLE FOR
       CHILLICOTHE AND FARMINGTON.

MOZ001>031-035>038-043-044-053-054-281400-
...NORTHERN AND WESTERN MISSOURI...

CITY           SKY/WX    TMP DP  RH WIND       PRES   REMARKS
KANSAS CTY INT CLOUDY    73  71  93 N6        29.98R
KANSAS C DTWN  CLOUDY    76  71  85 NW5       29.96R
LEE`S SUMMIT   SUNNY     77  72  84 CALM      29.98R
ST JOSEPH      PTSUNNY   72  70  93 CALM      29.99R
CHILLICOTHE      N/A     77  70  79 CALM      29.96S
KIRKSVILLE     SUNNY     75  69  81 CALM      29.96R

$$
MOZ066>068-077>081-088>096-101>105-281400-
...SOUTHWEST MISSOURI...

CITY           SKY/WX    TMP DP  RH WIND       PRES   REMARKS
SPRINGFIELD    SUNNY     76  71  85 W6        29.98R
JOPLIN         MOSUNNY   75  73  93 SW6       29.99R
BRANSON        SUNNY     73  72  94 CALM      30.01R

$$
MOZ032>034-039>042-045>050-055>058-069>072-281400-
...CENTRAL MISSOURI...

CITY           SKY/WX    TMP DP  RH WIND       PRES   REMARKS
COLUMBIA       SUNNY     77  74  90 NW7       29.94R
JEFFERSON CITY MOSUNNY   76  74  93 NW3       29.93R
ROLLA          FOG       72  71  97 CALM      29.94R VSB 1/4
SEDALIA        SUNNY     79  73  82 W5        29.96R
WHITEMAN AFB   MOSUNNY   75  75 100 NW5       29.95R
OSAGE BEACH    CLOUDY    75  73  93 VRB5      29.96R

$$
MOZ051-052-059>065-281400-
...EAST CENTRAL MISSOURI...

CITY           SKY/WX    TMP DP  RH WIND       PRES   REMARKS
ST LOUIS INTL  MOSUNNY   80  70  71 SW6       29.91S
SPIRIT OF STL  MOSUNNY   77  73  87 SW6       29.90S
ST CHARLES     MOSUNNY   77  75  93 W5        29.90S

$$
MOZ072>076-082>087-097>100-106>115-281400-
...SOUTH CENTRAL AND SOUTHEAST MISSOURI...

CITY           SKY/WX    TMP DP  RH WIND       PRES   REMARKS
CAPE GIRARDEAU CLOUDY    75  73  93 W6        29.92R
FARMINGTON     SUNNY     77  72  84 CALM      29.94S
POPLAR BLUFF   CLOUDY    75  73  93 SW3       29.92R
WEST PLAINS    FOG       72  70  93 W7        30.00R VSB 1/4

$$



USA.gov is the U.S. government's official web portal to all federal, state and local government web resources and services.